Lid_Strength_Index
-1 -0 0 3 11 11 13 12 9 10 9 7 8 10 12 12 12 14 8 9 8 9 9 7 3 2 1 1 1 1 1 0 0 0 0 -0 -0 -1 -1 -0 -1 -1 -1 -1 -2 -1 -1 -1 -1
-0 0 2 6 12 14 14 9 11 9 6 7 9 7 11 13 10 11 12 9 9 8 8 7 3 2 2 2 1 1 1 1 0 0 0 -0 -0 -0 -0 -1 -0 -1 -0 -1 -1 -1 -1 -1 -1
0 1 6 9 11 14 13 9 9 7 8 8 10 11 12 13 11 11 10 9 9 9 8 7 3 2 2 2 1 1 1 1 1 0 0 0 0 0 -0 -0 -0 -0 -0 -0 -0 -0 -0 -0 -1
2 3 5 10 12 10 10 8 7 7 7 7 10 14 12 11 11 11 10 9 9 8 8 6 3 2 2 1 1 1 1 1 0 0 0 0 -0 -0 -0 -0 0 -0 -0 -0 0 0 -0 -0 -1
2 5 10 11 11 10 8 6 6 8 9 10 9 13 13 11 10 10 9 8 8 8 8 7 3 2 2 2 1 1 1 1 1 1 1 1 0 0 0 -0 0 0 0 0 0 0 0 0 -0
6 5 10 13 11 10 10 6 7 9 11 11 11 12 13 10 10 10 9 9 8 8 8 7 4 3 3 2 2 2 2 2 1 1 1 1 1 1 1 1 1 0 0 0 1 1 1 1 1
7 9 10 11 11 11 9 8 9 10 11 14 11 12 12 11 10 9 9 9 9 8 8 8 7 5 3 3 2 2 2 2 2 2 2 2 2 2 1 2 1 1 1 1 1 1 1 1 1
5 7 9 10 10 10 10 10 10 11 13 10 10 14 15 11 9 9 9 9 9 9 8 8 7 7 6 6 3 2 2 2 3 3 3 3 4 3 3 2 2 2 1 1 1 0 0 0 1
3 10 12 11 10 11 10 12 11 10 12 12 11 12 11 9 9 10 10 10 9 8 8 7 7 6 6 5 4 3 2 2 3 3 3 4 6 6 5 3 1 0 1 1 1 1 1 0 0
7 10 10 9 8 10 9 11 11 11 12 12 12 11 10 10 11 12 11 11 10 9 8 7 6 6 6 5 6 7 6 7 7 6 7 6 6 5 4 4 2 1 1 1 1 1 2 2 4
6 9 8 8 8 8 10 11 9 11 13 13 14 13 11 12 12 11 11 10 10 8 7 6 7 7 7 7 7 7 7 7 7 6 6 6 6 6 6 6 6 6 4 5 5 5 5 6 5
9 7 8 8 9 10 11 11 13 13 13 12 12 12 12 13 12 12 11 10 9 8 7 7 7 8 8 7 7 8 7 7 8 7 7 6 6 6 6 6 6 6 6 6 6 6 6 5 5
10 9 9 9 10 11 11 12 13 14 12 12 11 11 12 13 12 11 10 9 8 9 8 7 7 8 7 8 8 7 7 7 7 6 5 6 6 6 6 6 6 6 6 6 7 7 6 6 6
9 10 11 11 11 11 13 13 12 13 12 12 11 12 13 13 12 11 9 9 9 8 8 7 7 7 7 8 8 7 7 7 7 7 6 6 5 6 5 6 6 6 6 6 6 7 7 7 7
10 12 12 12 11 12 11 14 14 13 12 12 13 14 13 13 11 10 8 9 10 8 8 7 7 7 8 8 8 7 7 7 7 6 5 6 5 6 6 6 6 5 5 5 6 7 7 7 7
10 12 14 12 11 11 11 15 14 13 14 14 13 15 14 13 11 9 9 9 8 8 8 8 7 7 8 8 7 7 6 7 7 6 6 5 5 5 5 5 5 5 5 5 5 6 7 7 7
11 13 12 13 10 11 13 14 14 13 13 14 14 15 14 13 10 9 9 9 8 8 9 8 8 8 8 8 7 7 7 7 6 6 6 5 5 5 5 4 5 4 4 5 6 6 6 7 7
13 13 12 12 12 11 13 14 14 14 14 14 15 15 15 13 10 9 9 8 8 8 8 8 8 8 8 8 8 8 7 7 6 6 6 6 6 5 4 5 4 4 4 5 5 6 6 6 7
12 12 13 12 11 12 13 13 14 14 14 15 16 15 15 13 10 9 9 9 8 8 8 9 9 8 8 8 8 8 8 7 7 7 7 6 5 4 4 4 4 4 4 4 5 5 6 6 5
11 12 14 13 12 13 13 14 14 14 14 15 15 15 15 13 11 10 9 9 8 9 9 9 8 8 8 8 8 8 8 7 7 7 6 6 4 4 4 4 4 4 4 4 5 5 6 6 6
12 14 15 15 13 13 14 16 15 14 14 13 14 14 14 12 11 10 10 10 9 10 9 9 8 8 8 8 7 7 8 7 8 7 7 5 5 4 4 3 3 3 3 3 3 4 5 7 6
13 13 13 14 15 17 14 20 17 15 15 15 16 15 14 12 10 10 10 10 9 10 9 9 8 8 7 8 8 8 8 9 8 7 6 5 5 5 3 3 3 3 3 3 4 3 4 6 8
14 12 13 12 15 15 16 19 20 15 16 17 16 15 14 12 11 10 10 9 9 9 9 9 8 8 8 7 7 8 9 8 7 7 7 6 5 5 3 3 3 3 3 3 4 4 5 5 6
12 13 12 13 15 18 15 17 20 18 17 17 16 15 13 12 11 9 9 9 9 9 9 8 8 8 8 7 7 8 9 9 8 8 9 7 6 5 3 2 3 3 3 4 4 4 4 4 5
13 15 17 18 19 19 16 19 20 17 16 16 16 15 13 12 11 10 10 10 10 10 9 8 8 9 8 8 7 7 8 8 9 8 7 8 6 6 5 3 3 3 4 4 4 4 4 5 6
15 16 18 20 20 19 16 20 19 15 15 14 14 14 13 12 11 10 10 10 10 10 9 9 9 9 8 8 7 7 8 8 8 8 7 8 6 5 4 4 4 4 4 4 4 4 4 4 5
15 16 16 18 17 20 17 19 17 15 15 15 15 13 14 12 11 10 10 10 10 10 9 9 9 9 8 8 8 8 8 8 8 8 7 8 6 4 4 4 4 3 4 5 5 4 4 4 4
15 15 18 17 20 21 17 19 20 18 17 16 16 15 14 12 11 10 10 10 10 10 9 9 9 9 8 8 8 8 8 8 8 8 8 8 6 5 4 4 4 4 4 4 3 3 3 3 4
16 16 16 17 18 21 21 20 17 17 17 18 17 15 15 13 11 11 10 10 10 9 10 9 9 9 8 8 8 9 8 7 8 8 8 7 6 5 4 4 4 5 5 4 4 4 3 4 4
16 16 16 18 18 19 20 20 15 16 16 16 16 15 15 12 11 11 10 11 11 10 10 10 9 9 9 8 9 9 8 8 9 9 8 7 7 5 5 5 5 4 5 5 5 5 5 5 5